Dunkirk, NY

2:50 AM EST on November 21, 2019 (GMT -0500)
Chautauqua County-Dunkirk

Weather History for KDKK - September, 2019

Change the Weather History Date:

Monday, September 16, 2019

  Actual Average Record
Temperature  
Mean Temperature 69 °F -  
Max Temperature 75 °F 70 °F 92 °F (1939)
Min Temperature 63 °F 53 °F 35 °F (1964)
Cooling Degree Days 4    
Growing Degree Days 19 (Base 50)    
Moisture  
Dew Point 62 °F    
Average Humidity 81    
Maximum Humidity 97    
Minimum Humidity 66    
Precipitation  
Precipitation 0.00 in - - ()
Sea Level Pressure  
Sea Level Pressure 30.08 in    
Wind  
Wind Speed 3 mph (NNE)    
Max Wind Speed 10 mph    
Max Gust Speed -    
Visibility 10 miles    
Events      
Averages and records for this station are not official NWS values.
T = Trace of Precipitation, MM = Missing Value Source: NWS Daily Summary

Daily Weather History Graph

Daily Weather History Graph

Search for Another Location

Airport or City:

Astronomy

Sep. 16, 2019 Rise Set
Actual Time 6:57 AM EDT 7:25 PM EDT
Civil Twilight 6:29 AM EDT 7:53 PM EDT
Nautical Twilight 5:56 AM EDT 8:26 PM EDT
Astronomical Twilight 5:21 AM EDT 9:00 PM EDT
Moon 8:56 PM EDT (9/16) 9:04 AM EDT (9/16)
Length of Visible Light 13h 24m
Length of Day
12h 27m
Waning Gibbous, 94% of the Moon is Illuminated
Sep 16
Waning Gibbous
Sep 21
Last Quarter
Sep 28
New
Oct 5
First Quarter
Oct 13
Full

Hourly Weather History & Observations

Time (EDT) Temp. Dew Point Humidity Pressure Visibility Wind Dir Wind Speed Gust Speed Precip Events Conditions
12:53 AM 64.9 °F 62.1 °F 90% 30.08 in 10.0 mi Calm Calm - N/A   Overcast
1:53 AM 66.0 °F 61.0 °F 84% 30.07 in 10.0 mi Calm Calm - 0.00 in   Overcast
2:53 AM 64.0 °F 62.1 °F 93% 30.06 in 10.0 mi Calm Calm - N/A   Overcast
3:53 AM 63.0 °F 62.1 °F 97% 30.06 in 9.0 mi Calm Calm - N/A   Overcast
4:53 AM 64.0 °F 62.1 °F 93% 30.06 in 10.0 mi Calm Calm - N/A   Overcast
5:53 AM 64.0 °F 62.1 °F 93% 30.06 in 10.0 mi Calm Calm - N/A   Overcast
6:53 AM 64.0 °F 61.0 °F 90% 30.06 in 10.0 mi East 3.5 mph - N/A   Overcast
7:53 AM 64.9 °F 62.1 °F 90% 30.08 in 10.0 mi Calm Calm - N/A   Overcast
8:53 AM 66.0 °F 62.1 °F 87% 30.08 in 10.0 mi ESE 3.5 mph - N/A   Overcast
9:53 AM 70.0 °F 62.1 °F 76% 30.09 in 10.0 mi Calm Calm - N/A   Overcast
10:53 AM 71.1 °F 64.0 °F 78% 30.09 in 10.0 mi North 5.8 mph - N/A   Overcast
11:53 AM 73.0 °F 64.0 °F 73% 30.08 in 10.0 mi NNE 5.8 mph - N/A   Overcast
12:53 PM 75.0 °F 63.0 °F 66% 30.07 in 10.0 mi Variable 6.9 mph - N/A   Overcast
1:53 PM 72.0 °F 64.0 °F 76% 30.07 in 10.0 mi NNE 8.1 mph - N/A   Overcast
2:53 PM 71.1 °F 63.0 °F 75% 30.07 in 10.0 mi North 10.4 mph - N/A   Overcast
3:53 PM 73.0 °F 63.0 °F 71% 30.06 in 10.0 mi North 10.4 mph - N/A   Overcast
4:53 PM 73.0 °F 64.0 °F 73% 30.06 in 10.0 mi North 6.9 mph - N/A   Overcast
5:53 PM 72.0 °F 63.0 °F 73% 30.06 in 10.0 mi North 9.2 mph - N/A   Overcast
6:09 PM 73.0 °F 62.1 °F 68% 30.07 in 10.0 mi NNE 8.1 mph - N/A   Overcast
6:53 PM 70.0 °F 63.0 °F 78% 30.07 in 10.0 mi North 5.8 mph - N/A   Mostly Cloudy
7:53 PM 68.0 °F 62.1 °F 81% 30.08 in 10.0 mi North 8.1 mph - N/A   Overcast
8:53 PM 68.0 °F 61.0 °F 78% 30.09 in 10.0 mi NNE 9.2 mph - N/A   Overcast
9:53 PM 66.0 °F 60.1 °F 81% 30.09 in 10.0 mi NE 5.8 mph - N/A   Mostly Cloudy
10:53 PM 64.9 °F 59.0 °F 81% 30.11 in 10.0 mi Calm Calm - N/A   Overcast
11:53 PM 64.0 °F 59.0 °F 84% 30.12 in 10.0 mi East 3.5 mph - N/A   Overcast